Location: Newark
(52.4787°S, 179.0532°W)
Time: 03:33:45
(UTC+00:00)

Transit 2A Rocket - Pass Details

Date: 29 November 2019
Orbit: 594 x 909 km, 66.7° (Epoch: 07 December)

Event Time Altitude Azimuth Distance (km) Brightness Sun altitude
Rises 23:55:06 0° 239° (WSW) 3,540 8.3 58.8°
Reaches altitude 10° 23:58:16 10° 224° (SW) 2,619 7.7 58.8°
Maximum altitude 00:02:54 22° 175° (S) 1,922 7.0 58.7°
Drops below altitude 10° 00:07:31 10° 125° (SE) 2,607 7.6 58.6°
Sets 00:10:40 0° 110° (ESE) 3,520 8.3 58.5°
